| time (UTC) | temp F | wind direction | speed knots | gust knots | rain 1hr in | rain 24hr in | rain mn in | humidity % | barometer mb |
| 20260510020026 | 60 | 248 | 0.0 | 0.0 | 0.00 | 0.00 | 0.00 | 60 | 1030.8 |
| 20260510015027 | 59 | 248 | 0.0 | 0.0 | 0.00 | 0.00 | 0.00 | 62 | 1030.5 |
| 20260510014026 | 60 | 113 | 0.0 | 0.0 | 0.00 | 0.00 | 0.00 | 64 | 1030.3 |
| 20260510013026 | 61 | 248 | 0.0 | 0.0 | 0.00 | 0.00 | 0.00 | 65 | 1030.2 |
| 20260510012028 | 62 | 248 | 0.0 | 0.0 | 0.00 | 0.00 | 0.00 | 63 | 1030.0 |
| 20260510011030 | 63 | 293 | 0.9 | 0.9 | 0.00 | 0.00 | 0.00 | 62 | 1029.8 |
| 20260510010025 | 63 | 135 | 0.9 | 1.7 | 0.00 | 0.00 | 0.00 | 61 | 1029.7 |
| 20260510005026 | 64 | 293 | 0.0 | 0.0 | 0.00 | 0.00 | 0.00 | 59 | 1029.5 |
| 20260510004025 | 66 | 225 | 0.0 | 0.0 | 0.00 | 0.00 | 0.00 | 57 | 1029.3 |
| 20260510003026 | 67 | 135 | 0.0 | 0.0 | 0.00 | 0.00 | 0.00 | 53 | 1029.0 |
| 20260510002028 | 68 | 270 | 0.0 | 0.9 | 0.00 | 0.00 | 0.00 | 51 | 1028.8 |
| 20260510001026 | 68 | 270 | 0.0 | 0.0 | 0.00 | 0.00 | 0.00 | 46 | 1028.7 |
| 20260510000028 | 69 | 90 | 0.0 | 0.0 | 0.00 | 0.00 | 0.00 | 41 | 1028.6 |
| 20260509235026 | 71 | 225 | 0.0 | 0.0 | 0.00 | 0.00 | 0.00 | 42 | 1028.5 |
| 20260509234025 | 72 | 248 | 2.6 | 3.5 | 0.00 | 0.00 | 0.00 | 41 | 1028.5 |
| 20260509233026 | 73 | 315 | 1.7 | 1.7 | 0.00 | 0.00 | 0.00 | 42 | 1028.5 |
| 20260509232025 | 73 | 225 | 0.9 | 1.7 | 0.00 | 0.00 | 0.00 | 42 | 1028.5 |
| 20260509231026 | 73 | 203 | 2.6 | 4.3 | 0.00 | 0.00 | 0.00 | 42 | 1028.4 |
| 20260509230026 | 74 | 225 | 4.3 | 6.1 | 0.00 | 0.00 | 0.00 | 42 | 1028.3 |
| 20260509225026 | 74 | 225 | 6.1 | 7.8 | 0.00 | 0.00 | 0.00 | 41 | 1028.2 |
| 20260509224026 | 74 | 180 | 3.5 | 4.3 | 0.00 | 0.00 | 0.00 | 41 | 1028.3 |
| 20260509223025 | 73 | 248 | 3.5 | 4.3 | 0.00 | 0.00 | 0.00 | 41 | 1028.3 |
| 20260509222025 | 73 | 158 | 4.3 | 4.3 | 0.00 | 0.00 | 0.00 | 40 | 1028.4 |
| 20260509221028 | 73 | 248 | 5.2 | 6.1 | 0.00 | 0.00 | 0.00 | 42 | 1028.2 |
| 20260509220026 | 73 | 203 | 5.2 | 6.1 | 0.00 | 0.00 | 0.00 | 42 | 1028.2 |
| 20260509215026 | 74 | 180 | 4.3 | 6.1 | 0.00 | 0.00 | 0.00 | 40 | 1028.2 |
| 20260509214028 | 73 | 293 | 3.5 | 4.3 | 0.00 | 0.00 | 0.00 | 39 | 1028.2 |
| 20260509213026 | 74 | 180 | 6.1 | 7.8 | 0.00 | 0.00 | 0.00 | 40 | 1028.1 |
| 20260509212026 | 74 | 90 | 4.3 | 5.2 | 0.00 | 0.00 | 0.00 | 40 | 1028.1 |
| 20260509211026 | 74 | 270 | 1.7 | 1.7 | 0.00 | 0.00 | 0.00 | 36 | 1027.8 |
| 20260509210026 | 73 | 225 | 3.5 | 8.7 | 0.00 | 0.00 | 0.00 | 41 | 1028.0 |
| 20260509205026 | 73 | 225 | 7.8 | 9.6 | 0.00 | 0.00 | 0.00 | 41 | 1027.8 |
| 20260509204026 | 74 | 293 | 4.3 | 6.1 | 0.00 | 0.00 | 0.00 | 39 | 1027.7 |
| 20260509203030 | 73 | 225 | 7.8 | 9.6 | 0.00 | 0.00 | 0.00 | 40 | 1027.6 |
| 20260509202026 | 73 | 158 | 7.0 | 7.8 | 0.00 | 0.00 | 0.00 | 38 | 1027.5 |
| 20260509201028 | 75 | 158 | 4.3 | 5.2 | 0.00 | 0.00 | 0.00 | 38 | 1027.5 |
| 20260509200028 | 75 | 225 | 5.2 | 6.1 | 0.00 | 0.00 | 0.00 | 37 | 1027.5 |
| 20260509195025 | 76 | 270 | 1.7 | 1.7 | 0.00 | 0.00 | 0.00 | 38 | 1027.7 |
| 20260509194028 | 76 | 203 | 4.3 | 5.2 | 0.00 | 0.00 | 0.00 | 36 | 1027.9 |
| 20260509193025 | 75 | 158 | 1.7 | 4.3 | 0.00 | 0.00 | 0.00 | 37 | 1028.1 |
| 20260509192026 | 75 | 158 | 5.2 | 6.1 | 0.00 | 0.00 | 0.00 | 38 | 1028.3 |
| 20260509191026 | 74 | 203 | 4.3 | 4.3 | 0.00 | 0.00 | 0.00 | 38 | 1028.4 |
| 20260509190028 | 74 | 248 | 6.1 | 9.6 | 0.00 | 0.00 | 0.00 | 36 | 1028.4 |
| 20260509185026 | 75 | 158 | 6.1 | 8.7 | 0.00 | 0.00 | 0.00 | 36 | 1028.3 |
| 20260509184025 | 74 | 270 | 4.3 | 4.3 | 0.00 | 0.00 | 0.00 | 38 | 1028.5 |
| 20260509183026 | 72 | 338 | 2.6 | 4.3 | 0.00 | 0.00 | 0.00 | 39 | 1028.7 |
| 20260509182026 | 75 | 158 | 7.0 | 8.7 | 0.00 | 0.00 | 0.00 | 35 | 1028.8 |
| 20260509181026 | 73 | 180 | 5.2 | 7.0 | 0.00 | 0.00 | 0.00 | 38 | 1028.9 |
| 20260509180027 | 71 | 225 | 4.3 | 6.1 | 0.00 | 0.00 | 0.00 | 41 | 1029.1 |
| 20260509175028 | 72 | 203 | 4.3 | 6.1 | 0.00 | 0.00 | 0.00 | 41 | 1029.2 |
| 20260509174026 | 70 | 180 | 3.5 | 4.3 | 0.00 | 0.00 | 0.00 | 44 | 1029.4 |
| 20260509173026 | 69 | 158 | 5.2 | 6.1 | 0.00 | 0.00 | 0.00 | 46 | 1029.5 |
| 20260509172026 | 69 | 135 | 3.5 | 4.3 | 0.00 | 0.00 | 0.00 | 46 | 1029.5 |
| 20260509171026 | 68 | 203 | 2.6 | 2.6 | 0.00 | 0.00 | 0.00 | 47 | 1029.7 |
| 20260509170026 | 68 | 203 | 1.7 | 2.6 | 0.00 | 0.00 | 0.00 | 46 | 1029.8 |
| 20260509165026 | 69 | 180 | 4.3 | 6.1 | 0.00 | 0.00 | 0.00 | 46 | 1029.9 |
| 20260509164028 | 69 | 225 | 2.6 | 2.6 | 0.00 | 0.00 | 0.00 | 47 | 1029.9 |
| 20260509163026 | 69 | 158 | 6.1 | 7.0 | 0.00 | 0.00 | 0.00 | 46 | 1029.9 |
| 20260509162027 | 71 | 113 | 3.5 | 4.3 | 0.00 | 0.00 | 0.00 | 44 | 1029.8 |
| 20260509161026 | 68 | 225 | 2.6 | 2.6 | 0.00 | 0.00 | 0.00 | 47 | 1029.8 |
| 20260509160026 | 67 | 248 | 4.3 | 5.2 | 0.00 | 0.00 | 0.00 | 49 | 1030.0 |
| 20260509155026 | 67 | 225 | 5.2 | 6.1 | 0.00 | 0.00 | 0.00 | 48 | 1029.9 |
| 20260509154026 | 67 | 135 | 2.6 | 3.5 | 0.00 | 0.00 | 0.00 | 50 | 1030.0 |
| 20260509153025 | 66 | 225 | 1.7 | 2.6 | 0.00 | 0.00 | 0.00 | 49 | 1030.0 |
| 20260509152026 | 67 | 135 | 3.5 | 4.3 | 0.00 | 0.00 | 0.00 | 48 | 1029.9 |
| 20260509151026 | 67 | 180 | 4.3 | 5.2 | 0.00 | 0.00 | 0.00 | 45 | 1029.7 |
| 20260509150026 | 67 | 225 | 2.6 | 3.5 | 0.00 | 0.00 | 0.00 | 48 | 1029.9 |
| 20260509145026 | 67 | 225 | 3.5 | 4.3 | 0.00 | 0.00 | 0.00 | 48 | 1029.9 |
| 20260509144026 | 68 | 180 | 3.5 | 4.3 | 0.00 | 0.00 | 0.00 | 45 | 1029.9 |
| 20260509143025 | 65 | 248 | 1.7 | 2.6 | 0.00 | 0.00 | 0.00 | 50 | 1030.0 |
| 20260509142026 | 65 | 225 | 2.6 | 4.3 | 0.00 | 0.00 | 0.00 | 49 | 1029.9 |
| 20260509141026 | 65 | 158 | 2.6 | 4.3 | 0.00 | 0.00 | 0.00 | 49 | 1030.3 |
| 20260509140026 | 63 | 225 | 3.5 | 4.3 | 0.00 | 0.00 | 0.00 | 53 | 1030.6 |
| 20260509135026 | 62 | 135 | 0.9 | 1.7 | 0.00 | 0.00 | 0.00 | 55 | 1030.8 |
| 20260509134026 | 62 | 180 | 2.6 | 2.6 | 0.00 | 0.00 | 0.00 | 55 | 1030.9 |
| 20260509133026 | 60 | 270 | 2.6 | 4.3 | 0.00 | 0.00 | 0.00 | 56 | 1031.1 |
| 20260509132026 | 60 | 203 | 6.1 | 7.0 | 0.00 | 0.00 | 0.00 | 55 | 1031.1 |
| 20260509131026 | 59 | 225 | 4.3 | 4.3 | 0.00 | 0.00 | 0.00 | 55 | 1031.1 |
| 20260509130026 | 59 | 203 | 5.2 | 6.1 | 0.00 | 0.00 | 0.00 | 55 | 1031.0 |
| 20260509125026 | 59 | 203 | 3.5 | 4.3 | 0.00 | 0.00 | 0.00 | 55 | 1031.0 |
| 20260509124025 | 59 | 180 | 2.6 | 3.5 | 0.00 | 0.00 | 0.00 | 55 | 1030.9 |
| 20260509123026 | 59 | 225 | 2.6 | 3.5 | 0.00 | 0.00 | 0.00 | 54 | 1030.9 |
| 20260509122026 | 58 | 158 | 4.3 | 5.2 | 0.00 | 0.00 | 0.00 | 54 | 1030.9 |
| 20260509121030 | 58 | 225 | 1.7 | 1.7 | 0.00 | 0.00 | 0.00 | 56 | 1031.1 |
| 20260509120026 | 57 | 270 | 1.7 | 1.7 | 0.00 | 0.00 | 0.00 | 56 | 1031.1 |
| 20260509115026 | 57 | 293 | 0.9 | 1.7 | 0.00 | 0.00 | 0.00 | 56 | 1031.1 |
| 20260509114026 | 57 | 293 | 1.7 | 1.7 | 0.00 | 0.00 | 0.00 | 55 | 1031.1 |
| 20260509113028 | 57 | 225 | 1.7 | 1.7 | 0.00 | 0.00 | 0.00 | 56 | 1031.0 |
| 20260509112028 | 56 | 225 | 2.6 | 3.5 | 0.00 | 0.00 | 0.00 | 55 | 1031.0 |
| 20260509111028 | 56 | 225 | 1.7 | 2.6 | 0.00 | 0.00 | 0.00 | 55 | 1031.0 |
| 20260509110026 | 56 | 270 | 0.9 | 0.9 | 0.00 | 0.00 | 0.00 | 55 | 1030.9 |
| 20260509105026 | 56 | 225 | 0.9 | 1.7 | 0.00 | 0.00 | 0.00 | 53 | 1030.9 |
| 20260509104026 | 56 | 225 | 2.6 | 3.5 | 0.00 | 0.00 | 0.00 | 53 | 1031.0 |
| 20260509103026 | 55 | 248 | 1.7 | 1.7 | 0.00 | 0.00 | 0.00 | 54 | 1030.9 |
| 20260509102025 | 55 | 248 | 0.9 | 1.7 | 0.00 | 0.00 | 0.00 | 55 | 1031.0 |
| 20260509101026 | 55 | 225 | 0.9 | 1.7 | 0.00 | 0.00 | 0.00 | 55 | 1031.0 |
| 20260509100026 | 55 | 270 | 1.7 | 1.7 | 0.00 | 0.00 | 0.00 | 54 | 1031.0 |
| 20260509095026 | 55 | 293 | 1.7 | 1.7 | 0.00 | 0.00 | 0.00 | 54 | 1031.1 |
| 20260509094026 | 55 | 270 | 0.9 | 0.9 | 0.00 | 0.00 | 0.00 | 54 | 1031.1 |
| 20260509093026 | 55 | 203 | 1.7 | 1.7 | 0.00 | 0.00 | 0.00 | 54 | 1031.1 |
| 20260509092025 | 55 | 135 | 1.7 | 1.7 | 0.00 | 0.00 | 0.00 | 53 | 1031.1 |
| 20260509091026 | 56 | 248 | 2.6 | 3.5 | 0.00 | 0.00 | 0.00 | 51 | 1031.3 |
| 20260509090026 | 55 | 113 | 2.6 | 2.6 | 0.00 | 0.00 | 0.00 | 52 | 1031.2 |
| 20260509085026 | 56 | 158 | 2.6 | 2.6 | 0.00 | 0.00 | 0.00 | 51 | 1031.3 |
| 20260509084026 | 56 | 248 | 1.7 | 1.7 | 0.00 | 0.00 | 0.00 | 51 | 1031.3 |
| 20260509083028 | 56 | 225 | 0.9 | 1.7 | 0.00 | 0.00 | 0.00 | 51 | 1031.4 |
| 20260509082026 | 56 | 225 | 1.7 | 1.7 | 0.00 | 0.00 | 0.00 | 51 | 1031.3 |
| 20260509081026 | 56 | 225 | 2.6 | 3.5 | 0.00 | 0.00 | 0.00 | 51 | 1031.4 |
| 20260509080026 | 56 | 270 | 2.6 | 3.5 | 0.00 | 0.00 | 0.00 | 50 | 1031.4 |
| 20260509075026 | 56 | 270 | 2.6 | 2.6 | 0.00 | 0.00 | 0.00 | 50 | 1031.5 |
| 20260509074026 | 57 | 225 | 2.6 | 2.6 | 0.00 | 0.00 | 0.00 | 49 | 1031.6 |
| 20260509073026 | 57 | 270 | 1.7 | 1.7 | 0.00 | 0.00 | 0.00 | 50 | 1031.7 |
| 20260509072026 | 57 | 248 | 3.5 | 4.3 | 0.00 | 0.00 | 0.00 | 50 | 1031.8 |
| 20260509071028 | 57 | 248 | 2.6 | 3.5 | 0.00 | 0.00 | 0.00 | 49 | 1031.8 |
| 20260509070026 | 56 | 315 | 1.7 | 1.7 | 0.00 | 0.00 | 0.00 | 50 | 1031.8 |
| 20260509065026 | 56 | 225 | 1.7 | 1.7 | 0.00 | 0.00 | 0.00 | 51 | 1031.8 |
| 20260509064030 | 56 | 270 | 2.6 | 3.5 | 0.00 | 0.00 | 0.00 | 52 | 1032.0 |
| 20260509063027 | 55 | 248 | 1.7 | 2.6 | 0.00 | 0.00 | 0.00 | 54 | 1032.1 |
| 20260509062026 | 55 | 270 | 0.9 | 1.7 | 0.00 | 0.00 | 0.00 | 55 | 1032.1 |
| 20260509061028 | 55 | 293 | 1.7 | 1.7 | 0.00 | 0.00 | 0.00 | 54 | 1032.3 |
| 20260509060026 | 56 | 158 | 1.7 | 3.5 | 0.00 | 0.00 | 0.00 | 50 | 1032.3 |
| 20260509055025 | 56 | 158 | 1.7 | 2.6 | 0.00 | 0.00 | 0.00 | 51 | 1032.4 |
| 20260509054026 | 56 | 225 | 1.7 | 1.7 | 0.00 | 0.00 | 0.00 | 51 | 1032.4 |
| 20260509053030 | 55 | 225 | 0.9 | 1.7 | 0.00 | 0.00 | 0.00 | 51 | 1032.6 |
| 20260509052026 | 55 | 248 | 1.7 | 1.7 | 0.00 | 0.00 | 0.00 | 51 | 1032.6 |
| 20260509051026 | 55 | 225 | 0.9 | 1.7 | 0.00 | 0.00 | 0.00 | 52 | 1032.7 |
| 20260509050030 | 55 | 225 | 0.9 | 1.7 | 0.00 | 0.00 | 0.00 | 52 | 1032.7 |
| 20260509045026 | 55 | 225 | 0.9 | 1.7 | 0.00 | 0.00 | 0.00 | 52 | 1032.6 |
| 20260509044025 | 55 | 203 | 0.9 | 1.7 | 0.00 | 0.00 | 0.00 | 52 | 1032.5 |
| 20260509043026 | 55 | 203 | 1.7 | 2.6 | 0.00 | 0.00 | 0.00 | 52 | 1032.6 |
| 20260509042026 | 56 | 248 | 0.9 | 1.7 | 0.00 | 0.00 | 0.00 | 52 | 1032.6 |
| 20260509041026 | 55 | 270 | 0.9 | 1.7 | 0.00 | 0.00 | 0.00 | 53 | 1032.4 |
| 20260509040025 | 55 | 270 | 1.7 | 1.7 | 0.00 | 0.00 | 0.00 | 53 | 1032.5 |
| 20260509035026 | 56 | 270 | 1.7 | 1.7 | 0.00 | 0.00 | 0.00 | 53 | 1032.6 |
| 20260509034026 | 56 | 270 | 1.7 | 1.7 | 0.00 | 0.00 | 0.00 | 52 | 1032.5 |
| 20260509033026 | 56 | 270 | 0.9 | 1.7 | 0.00 | 0.00 | 0.00 | 52 | 1032.5 |
| 20260509032025 | 57 | 248 | 1.7 | 1.7 | 0.00 | 0.00 | 0.00 | 52 | 1032.5 |
| 20260509031026 | 57 | 225 | 0.9 | 1.7 | 0.00 | 0.00 | 0.00 | 51 | 1032.5 |
| 20260509030025 | 57 | 270 | 2.6 | 2.6 | 0.00 | 0.00 | 0.00 | 51 | 1032.6 |
| 20260509025025 | 57 | 270 | 1.7 | 1.7 | 0.00 | 0.00 | 0.00 | 51 | 1032.6 |
| 20260509024026 | 58 | 270 | 1.7 | 1.7 | 0.00 | 0.00 | 0.00 | 51 | 1032.7 |
| 20260509023026 | 58 | 270 | 1.7 | 1.7 | 0.00 | 0.00 | 0.00 | 50 | 1032.9 |
| 20260509022026 | 59 | 270 | 1.7 | 2.6 | 0.00 | 0.00 | 0.00 | 49 | 1032.8 |
| 20260509021029 | 59 | 225 | 0.9 | 1.7 | 0.00 | 0.00 | 0.00 | 48 | 1032.6 |